Lyndonville, VT

11:32 PM EDT on August 25, 2016 (GMT -0400)
Lyndonville

Weather History for KCDA - March, 2014

Change the Weather History Date:

Friday, March 7, 2014

  Actual Average (K1V4) Record (K1V4)
Temperature  
Mean Temperature 17 °F 26 °F  
Max Temperature 36 °F 38 °F 63 °F (1974)
Min Temperature -2 °F 15 °F -22 °F (2007)
Degree Days  
Heating Degree Days 48 39  
Month to date heating degree days 280  
Since 1 July heating degree days 6004  
Cooling Degree Days 0 0  
Month to date cooling degree days 0  
Year to date cooling degree days 0  
Moisture  
Dew Point -8 °F    
Average Humidity 35    
Maximum Humidity 65    
Minimum Humidity 11    
Precipitation  
Precipitation 0.00 in 0.08 in 1.72 in (2011)
Month to date precipitation 0.52  
Year to date precipitation 5.20  
Sea Level Pressure  
Sea Level Pressure 30.16 in    
Wind  
Wind Speed 4 mph (South)    
Max Wind Speed 15 mph    
Max Gust Speed 22 mph    
Visibility 10 miles    
Events      
T = Trace of Precipitation, MM = Missing Value Source: NWS Daily Summary

Daily Weather History Graph

Daily Weather History Graph

Search for Another Location

Airport or City:

Trip Planner

Search our weather history database for the weather conditions in past years. The results will help you decide how hot, cold, wet, or windy it might be!

Date:

Astronomy

Mar. 07, 2014 Rise Set
Actual Time 6:14 AM EST 5:43 PM EST
Civil Twilight 5:45 AM EST 6:12 PM EST
Nautical Twilight 5:12 AM EST 6:46 PM EST
Astronomical Twilight 4:38 AM EST 7:20 PM EST
Moon 9:51 AM EST (3/7) 12:00 AM EST (3/7)
Length of Visible Light 12h 27m
Length of Day
11h 28m
Waxing Crescent, 42% of the Moon is Illuminated
Mar 7
Waxing Crescent
Mar 8
First Quarter
Mar 16
Full
Mar 23
Last Quarter
Mar 30
New

Hourly Weather History & Observations

Time (EST) Temp. Windchill Dew Point Humidity Pressure Visibility Wind Dir Wind Speed Gust Speed Precip Events Conditions
12:15 AM 4.8 °F - -10.5 °F 49% 30.41 in 10.0 mi Calm Calm - N/A   Clear
12:35 AM 4.3 °F - -10.3 °F 51% 30.41 in 10.0 mi Calm Calm - N/A   Clear
12:55 AM 3.4 °F - -10.7 °F 52% 30.40 in 10.0 mi Calm Calm - N/A   Clear
1:15 AM 2.5 °F - -11.2 °F 53% 30.39 in 10.0 mi Calm Calm - N/A   Clear
1:35 AM 3.4 °F - -10.7 °F 52% 30.39 in 10.0 mi Calm Calm - N/A   Clear
1:55 AM 1.9 °F - -10.8 °F 55% 30.38 in 10.0 mi Calm Calm - N/A   Clear
2:15 AM 2.5 °F - -11.2 °F 53% 30.38 in 10.0 mi Calm Calm - N/A   Clear
2:35 AM 2.3 °F - -11.0 °F 54% 30.36 in 10.0 mi Calm Calm - N/A   Clear
2:55 AM 1.6 °F - -11.4 °F 55% 30.35 in 10.0 mi Calm Calm - N/A   Clear
3:15 AM -2.2 °F -10.4 °F -11.6 °F 64% 30.35 in 10.0 mi SW 3.5 mph - N/A   Clear
3:35 AM 0.1 °F - -10.7 °F 60% 30.34 in 10.0 mi Calm Calm - N/A   Clear
4:00 AM -1.8 °F - -11.4 °F 64% 30.34 in 10.0 mi Calm Calm - N/A   Clear
4:15 AM -2.4 °F - -11.9 °F 64% 30.33 in 10.0 mi Calm Calm - N/A   Clear
4:35 AM -2.9 °F - -12.1 °F 65% 30.32 in 10.0 mi Calm Calm - N/A   Clear
4:55 AM -2.0 °F - -11.9 °F 63% 30.30 in 10.0 mi Calm Calm - N/A   Clear
5:15 AM -0.4 °F - -12.3 °F 57% 30.31 in 10.0 mi Calm Calm - N/A   Clear
5:35 AM -1.3 °F - -11.9 °F 61% 30.31 in 10.0 mi Calm Calm - N/A   Clear
5:55 AM -2.6 °F - -12.3 °F 63% 30.31 in 10.0 mi Calm Calm - N/A   Clear
6:15 AM -1.5 °F - -11.9 °F 61% 30.31 in 10.0 mi Calm Calm - N/A   Clear
6:35 AM -0.4 °F -10.4 °F -11.9 °F 58% 30.30 in 10.0 mi SW 4.6 mph - N/A   Clear
6:55 AM -2.2 °F - -12.5 °F 62% 30.29 in 10.0 mi Calm Calm - N/A   Clear
7:15 AM -0.9 °F - -12.5 °F 58% 30.29 in 10.0 mi Calm Calm - N/A   Clear
7:35 AM 1.4 °F -6.2 °F -11.4 °F 55% 30.29 in 10.0 mi SW 3.5 mph - N/A   Clear
7:55 AM 5.4 °F - -11.6 °F 46% 30.29 in 10.0 mi Calm Calm - N/A   Clear
8:15 AM 10.9 °F 0.2 °F -11.9 °F 35% 30.29 in 10.0 mi SW 6.9 mph - N/A   Clear
8:35 AM 12.6 °F 2.2 °F -11.6 °F 33% 30.29 in 10.0 mi SW 6.9 mph - N/A   Clear
8:55 AM 14.2 °F 3.1 °F -11.7 °F 31% 30.28 in 10.0 mi SW 8.1 mph - N/A   Clear
9:15 AM 15.4 °F 6.8 °F -11.7 °F 29% 30.27 in 10.0 mi SW 5.8 mph - N/A   Clear
9:35 AM 18.0 °F 7.7 °F -12.3 °F 26% 30.26 in 10.0 mi SW 8.1 mph - N/A   Clear
9:55 AM 19.4 °F 10.4 °F -12.1 °F 24% 30.25 in 10.0 mi SW 6.9 mph - N/A   Clear
10:15 AM 21.9 °F 12.5 °F -11.9 °F 22% 30.25 in 10.0 mi SW 8.1 mph - N/A   Clear
10:40 AM 24.6 °F 15.8 °F -14.3 °F 18% 30.23 in 10.0 mi SSE 8.1 mph - N/A   Clear
10:55 AM 26.4 °F 18.0 °F -14.1 °F 17% 30.21 in 10.0 mi SSE 8.1 mph - N/A   Clear
11:15 AM 28.4 °F 18.5 °F -16.4 °F 14% 30.20 in 10.0 mi SSE 11.5 mph 19.6 mph N/A   Clear
11:35 AM 29.3 °F 21.5 °F -17.3 °F 13% 30.18 in 10.0 mi SSE 8.1 mph - N/A   Clear
11:55 AM 30.2 °F 21.9 °F -16.1 °F 13% 30.16 in 10.0 mi South 9.2 mph - N/A   Clear
12:15 PM 31.1 °F 21.4 °F -17.9 °F 11% 30.15 in 10.0 mi South 12.7 mph - N/A   Clear
12:35 PM 31.5 °F 21.4 °F -15.5 °F 13% 30.13 in 10.0 mi SSE 13.8 mph 19.6 mph N/A   Clear
12:55 PM 32.2 °F 21.8 °F -14.1 °F 13% 30.11 in 10.0 mi South 15.0 mph 18.4 mph N/A   Clear
1:15 PM 33.3 °F 23.2 °F -13.4 °F 13% 30.10 in 10.0 mi South 15.0 mph 18.4 mph N/A   Clear
1:35 PM 33.6 °F 25.6 °F -14.1 °F 12% 30.11 in 10.0 mi SSE 10.4 mph - N/A   Clear
1:55 PM 34.5 °F 27.9 °F -13.5 °F 12% 30.10 in 10.0 mi SSE 8.1 mph 18.4 mph N/A   Clear
2:15 PM 35.1 °F 26.4 °F -10.1 °F 14% 30.09 in 10.0 mi SSE 12.7 mph 21.9 mph N/A   Clear
2:35 PM 35.1 °F 26.9 °F -9.9 °F 14% 30.09 in 10.0 mi SSE 11.5 mph - N/A   Clear
2:55 PM 35.8 °F 28.3 °F -12.8 °F 12% 30.07 in 10.0 mi SSE 10.4 mph 17.3 mph N/A   Clear
3:15 PM 36.0 °F 28.5 °F -11.0 °F 13% 30.05 in 10.0 mi SSE 10.4 mph - N/A   Clear
3:35 PM 36.0 °F 28.5 °F -8.5 °F 15% 30.04 in 10.0 mi South 10.4 mph - N/A   Clear
3:55 PM 36.0 °F 28.5 °F -8.7 °F 15% 30.03 in 10.0 mi SSE 10.4 mph - N/A   Clear
4:15 PM 35.6 °F 29.2 °F -6.0 °F 17% 30.02 in 10.0 mi South 8.1 mph - N/A   Clear
4:35 PM 35.8 °F 28.8 °F -6.9 °F 16% 30.00 in 10.0 mi South 9.2 mph - N/A   Clear
4:55 PM 35.4 °F 28.4 °F -6.9 °F 16% 30.00 in 10.0 mi South 9.2 mph - N/A   Clear
5:15 PM 35.6 °F 29.2 °F -8.0 °F 15% 29.99 in 10.0 mi South 8.1 mph - N/A   Clear
5:35 PM 34.3 °F 28.4 °F -5.6 °F 18% 29.99 in 10.0 mi South 6.9 mph - N/A   Clear
5:55 PM 33.8 °F 26.4 °F -5.6 °F 18% 29.98 in 10.0 mi South 9.2 mph - N/A   Clear
6:15 PM 32.9 °F 28.5 °F -5.1 °F 20% 29.99 in 10.0 mi South 4.6 mph - N/A   Clear
6:35 PM 32.5 °F 29.3 °F -5.8 °F 19% 29.99 in 10.0 mi South 3.5 mph - N/A   Clear
6:55 PM 32.2 °F 26.7 °F -4.4 °F 21% 29.99 in 10.0 mi South 5.8 mph - N/A   Clear
7:15 PM 31.3 °F 23.9 °F -1.3 °F 25% 29.98 in 10.0 mi SSE 8.1 mph - N/A   Clear
7:35 PM 30.9 °F 25.2 °F -0.8 °F 26% 29.98 in 10.0 mi SSE 5.8 mph - N/A   Clear
7:55 PM 30.7 °F 24.1 °F 0.9 °F 28% 29.98 in 10.0 mi SSE 6.9 mph - N/A   Clear
8:15 PM 30.0 °F 22.4 °F 2.5 °F 31% 29.97 in 10.0 mi SSE 8.1 mph - N/A   Clear
8:35 PM 30.0 °F 22.4 °F 3.6 °F 33% 29.97 in 10.0 mi SSE 8.1 mph - N/A   Clear
8:55 PM 29.1 °F 21.3 °F 4.8 °F 36% 29.96 in 10.0 mi South 8.1 mph - N/A   Clear
9:15 PM 28.4 °F 21.2 °F 5.4 °F 38% 29.96 in 10.0 mi South 6.9 mph - N/A   Clear
9:35 PM 28.4 °F 22.2 °F 5.4 °F 38% 29.96 in 10.0 mi SSE 5.8 mph - N/A   Clear
9:55 PM 28.0 °F 21.7 °F 5.7 °F 39% 29.95 in 10.0 mi SSE 5.8 mph - N/A   Clear
10:15 PM 28.2 °F 22.0 °F 5.4 °F 38% 29.93 in 10.0 mi SSE 5.8 mph - N/A   Clear
10:35 PM 27.7 °F 23.8 °F 5.4 °F 39% 29.93 in 10.0 mi SSE 3.5 mph - N/A   Clear
10:55 PM 27.3 °F 19.9 °F 5.7 °F 40% 29.92 in 10.0 mi SSE 6.9 mph - N/A   Clear
11:15 PM 27.1 °F 21.8 °F 5.9 °F 41% 29.91 in 10.0 mi SSE 4.6 mph - N/A   Clear
11:35 PM 27.1 °F 20.7 °F 5.9 °F 41% 29.90 in 10.0 mi SSE 5.8 mph - N/A   Clear
11:55 PM 27.0 °F 21.6 °F 5.9 °F 41% 29.90 in 10.0 mi SSE 4.6 mph - N/A   Clear